| time (UTC) | temp F | wind direction | speed MPH | gust MPH | rain 1hr in | rain 24hr in | rain mn in | humidity % | barometer mb |
| 20260505010012 | 64 | 169 | 0.0 | 0.0 | 0.00 | 0.00 | 0.00 | 48 | 1002.2 |
| 20260505004523 | 65 | 169 | 0.0 | 0.0 | 0.00 | 0.00 | 0.00 | 46 | 1002.2 |
| 20260505003011 | 67 | 169 | 0.0 | 0.0 | 0.00 | 0.00 | 0.00 | 44 | 1002.2 |
| 20260505001511 | 69 | 169 | 0.0 | 0.0 | 0.00 | 0.00 | 0.00 | 39 | 1002.2 |
| 20260505000017 | 70 | 165 | 0.0 | 0.0 | 0.00 | 0.00 | 0.00 | 37 | 1002.2 |
| 20260504234517 | 71 | 170 | 0.0 | 0.0 | 0.00 | 0.00 | 0.00 | 35 | 1002.1 |
| 20260504233009 | 73 | 222 | 0.0 | 0.0 | 0.00 | 0.00 | 0.00 | 34 | 1002.0 |
| 20260504231526 | 73 | 228 | 0.0 | 5.0 | 0.00 | 0.00 | 0.00 | 32 | 1001.9 |
| 20260504230011 | 73 | 175 | 0.0 | 1.0 | 0.00 | 0.00 | 0.00 | 32 | 1002.0 |
| 20260504224507 | 74 | 176 | 0.0 | 7.0 | 0.00 | 0.00 | 0.00 | 32 | 1001.8 |
| 20260504223007 | 74 | 191 | 0.0 | 7.0 | 0.00 | 0.00 | 0.00 | 30 | 1001.8 |
| 20260504221505 | 74 | 143 | 0.0 | 2.0 | 0.00 | 0.00 | 0.00 | 31 | 1001.9 |
| 20260504220005 | 75 | 218 | 0.0 | 6.0 | 0.00 | 0.00 | 0.00 | 30 | 1001.9 |
| 20260504214504 | 75 | 212 | 0.0 | 6.0 | 0.00 | 0.00 | 0.00 | 31 | 1002.0 |
| 20260504213006 | 75 | 172 | 1.0 | 9.0 | 0.00 | 0.00 | 0.00 | 31 | 1002.2 |
| 20260504211500 | 75 | 227 | 0.0 | 3.0 | 0.00 | 0.00 | 0.00 | 30 | 1002.2 |
| 20260504210105 | 75 | 1 | 0.0 | 4.0 | 0.00 | 0.00 | 0.00 | 31 | 1002.3 |
| 20260504204637 | 75 | 191 | 0.0 | 8.0 | 0.00 | 0.00 | 0.00 | 32 | 1002.5 |
| 20260504203056 | 75 | 214 | 0.0 | 11.0 | 0.00 | 0.00 | 0.00 | 33 | 1002.7 |
| 20260504201555 | 75 | 253 | 0.0 | 2.0 | 0.00 | 0.00 | 0.00 | 33 | 1002.7 |
| 20260504200056 | 74 | 150 | 1.0 | 8.0 | 0.00 | 0.00 | 0.00 | 32 | 1002.9 |
| 20260504194555 | 75 | 190 | 1.0 | 8.0 | 0.00 | 0.00 | 0.00 | 33 | 1003.2 |
| 20260504193050 | 75 | 290 | 1.0 | 14.0 | 0.00 | 0.00 | 0.00 | 32 | 1003.4 |
| 20260504191547 | 74 | 190 | 0.0 | 8.0 | 0.00 | 0.00 | 0.00 | 35 | 1003.5 |
| 20260504190055 | 75 | 222 | 0.0 | 8.0 | 0.00 | 0.00 | 0.00 | 32 | 1003.8 |
| 20260504184559 | 74 | 220 | 0.0 | 7.0 | 0.00 | 0.00 | 0.00 | 34 | 1004.1 |
| 20260504183046 | 75 | 247 | 0.0 | 2.0 | 0.00 | 0.00 | 0.00 | 35 | 1004.1 |
| 20260504181538 | 73 | 337 | 0.0 | 3.0 | 0.00 | 0.00 | 0.00 | 37 | 1004.2 |
| 20260504180037 | 73 | 179 | 0.0 | 8.0 | 0.00 | 0.00 | 0.00 | 38 | 1004.4 |
| 20260504174538 | 72 | 148 | 2.0 | 9.0 | 0.00 | 0.00 | 0.00 | 38 | 1004.3 |
| 20260504173034 | 73 | 226 | 0.0 | 3.0 | 0.00 | 0.00 | 0.00 | 40 | 1004.6 |
| 20260504171540 | 72 | 143 | 1.0 | 9.0 | 0.00 | 0.00 | 0.00 | 41 | 1004.7 |
| 20260504081518 | 51 | 177 | 0.0 | 3.0 | 0.00 | 0.00 | 0.00 | 57 | 1007.2 |
| 20260504044546 | 52 | 203 | 0.0 | 0.0 | 0.00 | 0.00 | 0.00 | 56 | 1008.5 |
| 20260504043044 | 53 | 174 | 0.0 | 0.0 | 0.00 | 0.00 | 0.00 | 55 | 1008.6 |
| 20260504041540 | 53 | 199 | 0.0 | 0.0 | 0.00 | 0.00 | 0.00 | 53 | 1008.5 |
| 20260504040038 | 54 | 210 | 0.0 | 0.0 | 0.00 | 0.00 | 0.00 | 52 | 1008.4 |
| 20260504034541 | 54 | 227 | 0.0 | 1.0 | 0.00 | 0.00 | 0.00 | 51 | 1008.4 |
| 20260504033037 | 54 | 144 | 0.0 | 1.0 | 0.00 | 0.00 | 0.00 | 52 | 1008.4 |
| 20260504031535 | 54 | 191 | 0.0 | 0.0 | 0.00 | 0.00 | 0.00 | 52 | 1008.5 |
| 20260504030040 | 54 | 174 | 0.0 | 0.0 | 0.00 | 0.00 | 0.00 | 51 | 1008.6 |
| 20260504024533 | 54 | 153 | 0.0 | 1.0 | 0.00 | 0.00 | 0.00 | 51 | 1008.6 |
| 20260504023034 | 54 | 174 | 0.0 | 0.0 | 0.00 | 0.00 | 0.00 | 53 | 1008.7 |
| 20260504021534 | 54 | 215 | 0.0 | 3.0 | 0.00 | 0.00 | 0.00 | 54 | 1008.9 |
| 20260504020035 | 53 | 179 | 0.0 | 0.0 | 0.00 | 0.00 | 0.00 | 55 | 1008.9 |
| 20260504014536 | 53 | 135 | 0.0 | 1.0 | 0.00 | 0.00 | 0.00 | 58 | 1008.9 |
| 20260504013034 | 52 | 162 | 0.0 | 4.0 | 0.00 | 0.00 | 0.00 | 61 | 1008.9 |
| 20260504011532 | 52 | 212 | 0.0 | 0.0 | 0.00 | 0.00 | 0.00 | 66 | 1009.2 |